• In Uzbekistan
  • List of Countries
  • For 7 days
  • Water Temperature
  • Satellite Maps
  • Weather Map
  • Weather Widgets
  • user-avatar
    Login

    Hourly Weather Senaki

    Today, 19 September, Tuesday

    Time Temperature Precipitation Wind Pressure Humidity
    00:00 +25°C° 0 mm 2 mps 760 mmHg 49%
    01:00 +25°C° 0 mm 2 mps 760 mmHg 47%
    02:00 +25°C° 0 mm 2 mps 760 mmHg 45%
    03:00 +25°C° 0 mm 3 mps 759 mmHg 41%
    04:00 +25°C° 0 mm 3 mps 759 mmHg 41%
    05:00 +25°C° 0 mm 3 mps 759 mmHg 40%
    06:00 +24°C° 0 mm 3 mps 759 mmHg 40%
    07:00 +27°C° 0 mm 2 mps 759 mmHg 39%
    08:00 +29°C° 0 mm 2 mps 759 mmHg 39%
    09:00 +31°C° 0 mm 1 mps 759 mmHg 38%
    10:00 +33°C° 0 mm 1 mps 759 mmHg 35%
    11:00 +34°C° 0 mm 1 mps 759 mmHg 33%
    12:00 +37°C° 0 mm 2 mps 759 mmHg 30%
    13:00 +36°C° 0 mm 1 mps 758 mmHg 29%
    14:00 +36°C° 0 mm 1 mps 758 mmHg 29%
    15:00 +36°C° 0 mm 1 mps 758 mmHg 29%
    16:00 +34°C° 0 mm 1 mps 758 mmHg 37%
    17:00 +31°C° 0 mm 1 mps 758 mmHg 44%
    18:00 +28°C° 0 mm 1 mps 758 mmHg 52%
    19:00 +28°C° 0 mm 1 mps 759 mmHg 50%
    20:00 +27°C° 0 mm 2 mps 759 mmHg 47%
    21:00 +26°C° 0 mm 2 mps 759 mmHg 45%
    22:00 +26°C° 0 mm 3 mps 759 mmHg 41%
    23:00 +26°C° 0 mm 3 mps 759 mmHg 37%

    Tomorrow, 20 September, Wednesday

    Time Temperature Precipitation Wind Pressure Humidity
    00:00 +26°C° 0 mm 3 mps 759 mmHg 34%
    01:00 +26°C° 0 mm 3 mps 759 mmHg 32%
    02:00 +26°C° 0 mm 3 mps 759 mmHg 31%
    03:00 +26°C° 0 mm 3 mps 759 mmHg 29%
    04:00 +26°C° 0 mm 3 mps 759 mmHg 30%
    05:00 +26°C° 0 mm 3 mps 759 mmHg 30%
    06:00 +25°C° 0 mm 3 mps 759 mmHg 31%
    07:00 +27°C° 0 mm 3 mps 759 mmHg 32%
    08:00 +29°C° 0 mm 3 mps 758 mmHg 33%
    09:00 +33°C° 0 mm 3 mps 758 mmHg 35%
    10:00 +34°C° 0 mm 3 mps 758 mmHg 32%
    11:00 +36°C° 0 mm 3 mps 758 mmHg 29%
    12:00 +38°C° 0 mm 2 mps 757 mmHg 25%
    13:00 +38°C° 0 mm 2 mps 757 mmHg 26%
    14:00 +38°C° 0 mm 2 mps 757 mmHg 26%
    15:00 +37°C° 0 mm 1 mps 757 mmHg 26%
    16:00 +34°C° 0 mm 1 mps 757 mmHg 32%
    17:00 +32°C° 0 mm 1 mps 757 mmHg 38%
    18:00 +29°C° 0 mm 1 mps 757 mmHg 45%
    19:00 +29°C° 0 mm 2 mps 758 mmHg 43%
    20:00 +28°C° 0 mm 2 mps 758 mmHg 41%
    21:00 +27°C° 0 mm 2 mps 758 mmHg 40%
    22:00 +26°C° 0 mm 2 mps 758 mmHg 39%
    23:00 +26°C° 0 mm 3 mps 759 mmHg 38%

    Day after tomorrow, 21 September, Thursday

    Time Temperature Precipitation Wind Pressure Humidity
    00:00 +26°C° 0 mm 3 mps 759 mmHg 36%
    01:00 +26°C° 0 mm 3 mps 758 mmHg 36%
    02:00 +26°C° 0 mm 3 mps 758 mmHg 35%
    03:00 +25°C° 0 mm 3 mps 758 mmHg 34%
    04:00 +25°C° 0 mm 3 mps 758 mmHg 32%
    05:00 +25°C° 0 mm 3 mps 758 mmHg 30%
    06:00 +25°C° 0 mm 3 mps 758 mmHg 28%
    07:00 +28°C° 0 mm 3 mps 758 mmHg 29%
    08:00 +30°C° 0 mm 3 mps 758 mmHg 30%
    09:00 +33°C° 0 mm 3 mps 757 mmHg 31%
    10:00 +35°C° 0 mm 2 mps 757 mmHg 29%
    11:00 +36°C° 0 mm 2 mps 756 mmHg 26%
    12:00 +38°C° 0 mm 2 mps 756 mmHg 24%
    13:00 +38°C° 0 mm 2 mps 756 mmHg 24%
    14:00 +39°C° 0 mm 2 mps 755 mmHg 25%
    15:00 +39°C° 0 mm 1 mps 755 mmHg 25%
    16:00 +36°C° 0 mm 2 mps 755 mmHg 32%
    17:00 +34°C° 0 mm 2 mps 755 mmHg 38%
    18:00 +30°C° 0 mm 2 mps 755 mmHg 44%
    19:00 +30°C° 0 mm 2 mps 756 mmHg 43%
    20:00 +29°C° 0 mm 2 mps 756 mmHg 41%
    21:00 +28°C° 0 mm 2 mps 757 mmHg 40%
    22:00 +28°C° 0 mm 2 mps 757 mmHg 39%
    23:00 +27°C° 0 mm 2 mps 757 mmHg 39%

    22 September, Friday

    Time Temperature Precipitation Wind Pressure Humidity
    00:00 +26°C° 0 mm 2 mps 757 mmHg 38%
    01:00 +26°C° 0 mm 2 mps 757 mmHg 37%
    02:00 +26°C° 0 mm 2 mps 757 mmHg 35%
    03:00 +26°C° 0 mm 2 mps 757 mmHg 33%
    04:00 +26°C° 0 mm 3 mps 757 mmHg 33%
    05:00 +26°C° 0 mm 3 mps 757 mmHg 34%
    06:00 +26°C° 0 mm 3 mps 757 mmHg 34%
    07:00 +28°C° 0 mm 3 mps 756 mmHg 34%
    08:00 +30°C° 0 mm 3 mps 756 mmHg 34%
    09:00 +33°C° 0 mm 3 mps 756 mmHg 34%
    10:00 +34°C° 0 mm 2 mps 756 mmHg 31%
    11:00 +36°C° 0 mm 2 mps 756 mmHg 28%
    12:00 +37°C° 0 mm 2 mps 755 mmHg 25%
    13:00 +37°C° 0 mm 2 mps 755 mmHg 26%
    14:00 +37°C° 0 mm 3 mps 756 mmHg 27%
    15:00 +37°C° 0 mm 3 mps 756 mmHg 28%
    16:00 +34°C° 0 mm 3 mps 756 mmHg 41%
    17:00 +30°C° 0 mm 2 mps 757 mmHg 54%
    18:00 +26°C° 0 mm 2 mps 758 mmHg 67%
    19:00 +26°C° 0 mm 2 mps 758 mmHg 71%
    20:00 +25°C° 0 mm 2 mps 759 mmHg 75%
    21:00 +24°C° 0 mm 2 mps 760 mmHg 79%
    22:00 +23°C° 0 mm 2 mps 760 mmHg 79%
    23:00 +23°C° 0 mm 2 mps 760 mmHg 79%

    23 September, Saturday

    Time Temperature Precipitation Wind Pressure Humidity
    00:00 +23°C° 0 mm 2 mps 760 mmHg 80%
    01:00 +23°C° 0 mm 2 mps 761 mmHg 78%
    02:00 +21°C° 0 mm 2 mps 761 mmHg 76%
    03:00 +21°C° 0 mm 2 mps 761 mmHg 74%
    04:00 +21°C° 0 mm 2 mps 761 mmHg 71%
    05:00 +21°C° 0 mm 2 mps 761 mmHg 69%
    06:00 +21°C° 0 mm 2 mps 761 mmHg 66%
    07:00 +24°C° 0 mm 1 mps 761 mmHg 60%
    08:00 +26°C° 0 mm 1 mps 761 mmHg 54%
    09:00 +28°C° 0 mm 1 mps 760 mmHg 48%
    10:00 +30°C° 0 mm 1 mps 760 mmHg 45%
    11:00 +31°C° 0 mm 1 mps 760 mmHg 41%
    12:00 +32°C° 0 mm 2 mps 760 mmHg 37%
    13:00 +32°C° 0 mm 2 mps 760 mmHg 42%
    14:00 +31°C° 0 mm 3 mps 760 mmHg 47%
    15:00 +31°C° 0 mm 3 mps 760 mmHg 51%
    16:00 +29°C° 0 mm 3 mps 760 mmHg 63%
    17:00 +27°C° 0 mm 2 mps 760 mmHg 76%
    18:00 +25°C° 0 mm 2 mps 761 mmHg 88%
    19:00 +24°C° 0 mm 1 mps 761 mmHg 90%
    20:00 +24°C° 0 mm 1 mps 762 mmHg 93%
    21:00 +23°C° 0 mm 1 mps 762 mmHg 95%
    22:00 +23°C° 0 mm 1 mps 762 mmHg 93%
    23:00 +23°C° 0 mm 1 mps 762 mmHg 91%

    24 September, Sunday

    Time Temperature Precipitation Wind Pressure Humidity
    00:00 +23°C° 0 mm 1 mps 762 mmHg 89%
    01:00 +22°C° 0 mm 1 mps 762 mmHg 85%
    02:00 +22°C° 0 mm 1 mps 762 mmHg 81%
    03:00 +22°C° 0 mm 1 mps 762 mmHg 77%
    04:00 +22°C° 0.1 mm 1 mps 763 mmHg 73%
    05:00 +22°C° 0.1 mm 1 mps 763 mmHg 69%
    06:00 +20°C° 0.1 mm 2 mps 763 mmHg 65%
    07:00 +24°C° 0 mm 1 mps 763 mmHg 60%
    08:00 +26°C° 0 mm 1 mps 762 mmHg 54%
    09:00 +28°C° 0 mm 1 mps 762 mmHg 49%
    10:00 +29°C° 0 mm 1 mps 762 mmHg 47%
    11:00 +30°C° 0 mm 1 mps 762 mmHg 44%
    12:00 +31°C° 0 mm 2 mps 761 mmHg 42%
    13:00 +31°C° 0 mm 2 mps 761 mmHg 46%
    14:00 +30°C° 0 mm 2 mps 761 mmHg 50%
    15:00 +30°C° 0 mm 3 mps 761 mmHg 54%
    16:00 +28°C° 0 mm 2 mps 761 mmHg 66%
    17:00 +26°C° 0 mm 2 mps 761 mmHg 77%
    18:00 +24°C° 0 mm 1 mps 762 mmHg 89%
    19:00 +24°C° 0 mm 1 mps 762 mmHg 90%
    20:00 +23°C° 0 mm 1 mps 762 mmHg 91%
    21:00 +23°C° 0 mm 1 mps 763 mmHg 92%
    22:00 +22°C° 0 mm 1 mps 763 mmHg 88%
    23:00 +22°C° 0 mm 1 mps 763 mmHg 85%
    Show more